Wetterdaten: Sonntag, 11.10.2015
Datum Zeit Temperatur Luftfeuchte Luftdruck Regen Wind Richtung Richtung Sonnenschein ET UV Solar Taupunkt Windchill Windben
11.10.2015 00:00 6,2 C 77 % 1017,9 hPa 0,0 l/m 3,2 km/h (1 Bft) N-NO 32 0 min 0,000 mm 0,0 UV-I 0 W/m 2,5 C 6,2 C 11,3 km/h (2 Bft)
11.10.2015 00:05 6,1 C 77 % 1017,8 hPa 0,0 l/m 0,2 km/h (0 Bft) O-NO 61 0 min 0,000 mm 0,0 UV-I 0 W/m 2,4 C 6,1 C 3,2 km/h (1 Bft)
11.10.2015 00:10 6,0 C 78 % 1017,8 hPa 0,0 l/m 0,5 km/h (0 Bft) NO 47 0 min 0,000 mm 0,0 UV-I 0 W/m 2,5 C 6,0 C 8,0 km/h (2 Bft)
11.10.2015 00:15 5,8 C 78 % 1017,8 hPa 0,0 l/m 0,1 km/h (0 Bft) O-NO 59 0 min 0,000 mm 0,0 UV-I 0 W/m 2,3 C 5,8 C 3,2 km/h (1 Bft)
11.10.2015 00:20 5,7 C 78 % 1017,7 hPa 0,0 l/m 2,0 km/h (1 Bft) O-NO 59 0 min 0,000 mm 0,0 UV-I 0 W/m 2,2 C 5,7 C 8,0 km/h (2 Bft)
11.10.2015 00:25 5,6 C 78 % 1017,8 hPa 0,0 l/m 2,0 km/h (1 Bft) NO 52 0 min 0,000 mm 0,0 UV-I 0 W/m 2,1 C 5,6 C 11,3 km/h (2 Bft)
11.10.2015 00:30 5,6 C 78 % 1017,7 hPa 0,0 l/m 1,2 km/h (1 Bft) O-NO 68 0 min 0,000 mm 0,0 UV-I 0 W/m 2,1 C 5,6 C 14,5 km/h (3 Bft)
11.10.2015 00:35 5,5 C 78 % 1017,7 hPa 0,0 l/m 1,0 km/h (0 Bft) O-NO 69 0 min 0,000 mm 0,0 UV-I 0 W/m 2,0 C 5,5 C 6,4 km/h (2 Bft)
11.10.2015 00:40 5,4 C 78 % 1017,8 hPa 0,0 l/m 1,6 km/h (1 Bft) O-NO 65 0 min 0,000 mm 0,0 UV-I 0 W/m 1,9 C 5,4 C 12,9 km/h (3 Bft)
11.10.2015 00:45 5,4 C 78 % 1017,7 hPa 0,0 l/m 3,0 km/h (1 Bft) O-NO 59 0 min 0,000 mm 0,0 UV-I 0 W/m 1,9 C 5,4 C 11,3 km/h (2 Bft)
11.10.2015 00:50 5,4 C 78 % 1017,6 hPa 0,0 l/m 0,5 km/h (0 Bft) O-NO 67 0 min 0,000 mm 0,0 UV-I 0 W/m 1,9 C 5,4 C 4,8 km/h (1 Bft)
11.10.2015 00:55 5,4 C 78 % 1017,7 hPa 0,0 l/m 0,6 km/h (0 Bft) O-NO 62 0 min 0,000 mm 0,0 UV-I 0 W/m 1,9 C 5,4 C 4,8 km/h (1 Bft)
11.10.2015 01:00 5,4 C 78 % 1017,6 hPa 0,0 l/m 2,2 km/h (1 Bft) NO 40 0 min 0,000 mm 0,0 UV-I 0 W/m 1,9 C 5,4 C 11,3 km/h (2 Bft)
11.10.2015 01:04 5,3 C 78 % 1017,6 hPa 0,0 l/m 3,0 km/h (1 Bft) O-NO 61 0 min 0,025 mm 0,0 UV-I 0 W/m 1,8 C 5,3 C 11,3 km/h (2 Bft)
11.10.2015 01:05 5,3 C 78 % 1017,5 hPa 0,0 l/m 6,2 km/h (2 Bft) N-NO 15 0 min 0,000 mm 0,0 UV-I 0 W/m 1,8 C 5,3 C 11,3 km/h (2 Bft)
11.10.2015 01:10 5,3 C 78 % 1017,5 hPa 0,0 l/m 0,8 km/h (0 Bft) NO 34 0 min 0,000 mm 0,0 UV-I 0 W/m 1,8 C 5,3 C 12,9 km/h (3 Bft)
11.10.2015 01:15 5,2 C 78 % 1017,4 hPa 0,0 l/m 2,9 km/h (1 Bft) O-NO 59 0 min 0,000 mm 0,0 UV-I 0 W/m 1,7 C 5,2 C 12,9 km/h (3 Bft)
11.10.2015 01:20 5,1 C 78 % 1017,4 hPa 0,0 l/m 2,1 km/h (1 Bft) O 94 0 min 0,000 mm 0,0 UV-I 0 W/m 1,6 C 5,1 C 8,0 km/h (2 Bft)
11.10.2015 01:25 5,1 C 78 % 1017,4 hPa 0,0 l/m 2,3 km/h (1 Bft) O-NO 64 0 min 0,000 mm 0,0 UV-I 0 W/m 1,6 C 5,1 C 9,7 km/h (2 Bft)
11.10.2015 01:30 5,0 C 78 % 1017,4 hPa 0,0 l/m 5,8 km/h (2 Bft) O-NO 76 0 min 0,000 mm 0,0 UV-I 0 W/m 1,5 C 5,0 C 17,7 km/h (3 Bft)
11.10.2015 01:35 5,0 C 78 % 1017,4 hPa 0,0 l/m 4,1 km/h (1 Bft) NO 38 0 min 0,000 mm 0,0 UV-I 0 W/m 1,5 C 5,0 C 16,1 km/h (3 Bft)
11.10.2015 01:40 5,0 C 78 % 1017,3 hPa 0,0 l/m 3,0 km/h (1 Bft) O-NO 65 0 min 0,000 mm 0,0 UV-I 0 W/m 1,5 C 5,0 C 11,3 km/h (2 Bft)
11.10.2015 01:45 4,9 C 78 % 1017,3 hPa 0,0 l/m 6,5 km/h (2 Bft) NO 45 0 min 0,000 mm 0,0 UV-I 0 W/m 1,4 C 4,8 C 14,5 km/h (3 Bft)
11.10.2015 01:50 4,9 C 78 % 1017,3 hPa 0,0 l/m 2,3 km/h (1 Bft) O 84 0 min 0,000 mm 0,0 UV-I 0 W/m 1,4 C 4,9 C 11,3 km/h (2 Bft)
11.10.2015 01:55 5,0 C 78 % 1017,3 hPa 0,0 l/m 0,3 km/h (0 Bft) O 86 0 min 0,000 mm 0,0 UV-I 0 W/m 1,5 C 5,0 C 4,8 km/h (1 Bft)
11.10.2015 02:00 5,0 C 78 % 1017,5 hPa 0,0 l/m 0,4 km/h (0 Bft) SO 126 0 min 0,026 mm 0,0 UV-I 0 W/m 1,5 C 5,0 C 3,2 km/h (1 Bft)
11.10.2015 02:05 5,1 C 78 % 1017,4 hPa 0,0 l/m 0,8 km/h (0 Bft) O 87 0 min 0,000 mm 0,0 UV-I 0 W/m 1,6 C 5,1 C 8,0 km/h (2 Bft)
11.10.2015 02:10 5,1 C 78 % 1017,4 hPa 0,0 l/m 1,2 km/h (1 Bft) O-NO 76 0 min 0,000 mm 0,0 UV-I 0 W/m 1,6 C 5,1 C 8,0 km/h (2 Bft)
11.10.2015 02:15 5,1 C 77 % 1017,4 hPa 0,0 l/m 1,7 km/h (1 Bft) NO 46 0 min 0,000 mm 0,0 UV-I 0 W/m 1,4 C 5,1 C 8,0 km/h (2 Bft)
11.10.2015 02:20 5,1 C 77 % 1017,4 hPa 0,0 l/m 2,4 km/h (1 Bft) NO 46 0 min 0,000 mm 0,0 UV-I 0 W/m 1,4 C 5,1 C 11,3 km/h (2 Bft)
11.10.2015 02:25 5,1 C 77 % 1017,3 hPa 0,0 l/m 1,6 km/h (1 Bft) O-NO 62 0 min 0,000 mm 0,0 UV-I 0 W/m 1,4 C 5,1 C 9,7 km/h (2 Bft)
11.10.2015 02:30 5,0 C 77 % 1017,3 hPa 0,0 l/m 1,4 km/h (1 Bft) NO 55 0 min 0,000 mm 0,0 UV-I 0 W/m 1,3 C 5,0 C 8,0 km/h (2 Bft)
11.10.2015 02:35 5,0 C 77 % 1017,2 hPa 0,0 l/m 1,4 km/h (1 Bft) NO 36 0 min 0,000 mm 0,0 UV-I 0 W/m 1,3 C 5,0 C 11,3 km/h (2 Bft)
11.10.2015 02:40 5,0 C 77 % 1017,2 hPa 0,0 l/m 1,6 km/h (1 Bft) W-NW 290 0 min 0,000 mm 0,0 UV-I 0 W/m 1,3 C 5,0 C 8,0 km/h (2 Bft)
11.10.2015 02:45 5,1 C 77 % 1017,1 hPa 0,0 l/m 3,5 km/h (1 Bft) O-NO 57 0 min 0,000 mm 0,0 UV-I 0 W/m 1,4 C 5,1 C 12,9 km/h (3 Bft)
11.10.2015 02:50 5,1 C 77 % 1017,1 hPa 0,0 l/m 2,3 km/h (1 Bft) O 86 0 min 0,000 mm 0,0 UV-I 0 W/m 1,4 C 5,1 C 9,7 km/h (2 Bft)
11.10.2015 02:55 5,2 C 77 % 1017,0 hPa 0,0 l/m 3,6 km/h (1 Bft) O-NO 57 0 min 0,000 mm 0,0 UV-I 0 W/m 1,5 C 5,2 C 12,9 km/h (3 Bft)
11.10.2015 03:00 5,2 C 77 % 1017,0 hPa 0,0 l/m 2,6 km/h (1 Bft) O-NO 61 0 min 0,025 mm 0,0 UV-I 0 W/m 1,5 C 5,2 C 12,9 km/h (3 Bft)
11.10.2015 03:05 5,2 C 77 % 1017,0 hPa 0,0 l/m 2,5 km/h (1 Bft) O-NO 58 0 min 0,000 mm 0,0 UV-I 0 W/m 1,5 C 5,2 C 11,3 km/h (2 Bft)
11.10.2015 03:10 5,2 C 77 % 1016,9 hPa 0,0 l/m 6,0 km/h (2 Bft) NO 53 0 min 0,000 mm 0,0 UV-I 0 W/m 1,5 C 5,2 C 14,5 km/h (3 Bft)
11.10.2015 03:15 5,3 C 77 % 1016,8 hPa 0,0 l/m 6,2 km/h (2 Bft) O-NO 66 0 min 0,000 mm 0,0 UV-I 0 W/m 1,6 C 5,3 C 17,7 km/h (3 Bft)
11.10.2015 03:20 5,3 C 77 % 1016,8 hPa 0,0 l/m 5,9 km/h (2 Bft) NO 39 0 min 0,000 mm 0,0 UV-I 0 W/m 1,6 C 5,3 C 17,7 km/h (3 Bft)
11.10.2015 03:25 5,3 C 76 % 1016,9 hPa 0,0 l/m 5,2 km/h (1 Bft) N-NO 33 0 min 0,000 mm 0,0 UV-I 0 W/m 1,4 C 5,3 C 14,5 km/h (3 Bft)
11.10.2015 03:30 5,4 C 76 % 1016,8 hPa 0,0 l/m 8,7 km/h (2 Bft) O-NO 57 0 min 0,000 mm 0,0 UV-I 0 W/m 1,5 C 3,5 C 17,7 km/h (3 Bft)
11.10.2015 03:35 5,4 C 76 % 1016,9 hPa 0,0 l/m 4,1 km/h (1 Bft) O-NO 69 0 min 0,000 mm 0,0 UV-I 0 W/m 1,5 C 5,4 C 12,9 km/h (3 Bft)
11.10.2015 03:40 5,4 C 76 % 1016,9 hPa 0,0 l/m 5,6 km/h (1 Bft) NO 45 0 min 0,000 mm 0,0 UV-I 0 W/m 1,5 C 5,4 C 12,9 km/h (3 Bft)
11.10.2015 03:45 5,4 C 76 % 1016,9 hPa 0,0 l/m 1,9 km/h (1 Bft) O-NO 57 0 min 0,000 mm 0,0 UV-I 0 W/m 1,5 C 5,4 C 14,5 km/h (3 Bft)
11.10.2015 03:50 5,4 C 76 % 1016,8 hPa 0,0 l/m 5,9 km/h (2 Bft) O-NO 61 0 min 0,000 mm 0,0 UV-I 0 W/m 1,5 C 5,4 C 17,7 km/h (3 Bft)
11.10.2015 03:55 5,4 C 76 % 1016,8 hPa 0,0 l/m 3,3 km/h (1 Bft) N-NW 336 0 min 0,000 mm 0,0 UV-I 0 W/m 1,5 C 5,4 C 14,5 km/h (3 Bft)
11.10.2015 04:00 5,3 C 75 % 1016,8 hPa 0,0 l/m 3,6 km/h (1 Bft) O-NO 58 0 min 0,026 mm 0,0 UV-I 0 W/m 1,2 C 5,3 C 11,3 km/h (2 Bft)
11.10.2015 04:05 5,2 C 75 % 1016,7 hPa 0,0 l/m 1,5 km/h (1 Bft) NO 34 0 min 0,000 mm 0,0 UV-I 0 W/m 1,1 C 5,2 C 8,0 km/h (2 Bft)
11.10.2015 04:10 5,1 C 76 % 1016,6 hPa 0,0 l/m 1,1 km/h (1 Bft) O-NO 57 0 min 0,000 mm 0,0 UV-I 0 W/m 1,2 C 5,1 C 8,0 km/h (2 Bft)
11.10.2015 04:15 4,9 C 76 % 1016,5 hPa 0,0 l/m 1,9 km/h (1 Bft) O-NO 58 0 min 0,000 mm 0,0 UV-I 0 W/m 1,0 C 4,9 C 9,7 km/h (2 Bft)
11.10.2015 04:20 4,8 C 76 % 1016,5 hPa 0,0 l/m 3,8 km/h (1 Bft) O-NO 59 0 min 0,000 mm 0,0 UV-I 0 W/m 0,9 C 4,8 C 11,3 km/h (2 Bft)
11.10.2015 04:25 4,7 C 76 % 1016,6 hPa 0,0 l/m 2,9 km/h (1 Bft) O 88 0 min 0,000 mm 0,0 UV-I 0 W/m 0,8 C 4,7 C 9,7 km/h (2 Bft)
11.10.2015 04:30 4,6 C 77 % 1016,7 hPa 0,0 l/m 3,1 km/h (1 Bft) NO 45 0 min 0,000 mm 0,0 UV-I 0 W/m 0,9 C 4,6 C 11,3 km/h (2 Bft)
11.10.2015 04:35 4,4 C 77 % 1016,6 hPa 0,0 l/m 2,8 km/h (1 Bft) NO 34 0 min 0,000 mm 0,0 UV-I 0 W/m 0,7 C 4,4 C 9,7 km/h (2 Bft)
11.10.2015 04:40 4,4 C 77 % 1016,6 hPa 0,0 l/m 1,5 km/h (1 Bft) NO 49 0 min 0,000 mm 0,0 UV-I 0 W/m 0,7 C 4,4 C 6,4 km/h (2 Bft)
11.10.2015 04:45 4,3 C 78 % 1016,6 hPa 0,0 l/m 2,1 km/h (1 Bft) O-NO 58 0 min 0,000 mm 0,0 UV-I 0 W/m 0,8 C 4,3 C 9,7 km/h (2 Bft)
11.10.2015 04:50 4,2 C 78 % 1016,6 hPa 0,0 l/m 3,0 km/h (1 Bft) NO 44 0 min 0,000 mm 0,0 UV-I 0 W/m 0,7 C 4,2 C 11,3 km/h (2 Bft)
11.10.2015 04:55 4,1 C 78 % 1016,6 hPa 0,0 l/m 2,8 km/h (1 Bft) NO 49 0 min 0,000 mm 0,0 UV-I 0 W/m 0,6 C 4,1 C 11,3 km/h (2 Bft)
11.10.2015 05:00 3,9 C 78 % 1016,7 hPa 0,0 l/m 2,5 km/h (1 Bft) O-NO 63 0 min 0,025 mm 0,0 UV-I 0 W/m 0,4 C 3,9 C 6,4 km/h (2 Bft)
11.10.2015 05:05 3,9 C 78 % 1016,6 hPa 0,0 l/m 4,2 km/h (1 Bft) N-NO 15 0 min 0,000 mm 0,0 UV-I 0 W/m 0,4 C 3,9 C 11,3 km/h (2 Bft)
11.10.2015 05:10 3,8 C 78 % 1016,7 hPa 0,0 l/m 4,3 km/h (1 Bft) O-NO 62 0 min 0,000 mm 0,0 UV-I 0 W/m 0,3 C 3,8 C 11,3 km/h (2 Bft)
11.10.2015 05:15 3,8 C 78 % 1016,7 hPa 0,0 l/m 2,8 km/h (1 Bft) O-NO 62 0 min 0,000 mm 0,0 UV-I 0 W/m 0,3 C 3,8 C 9,7 km/h (2 Bft)
11.10.2015 05:20 3,8 C 78 % 1016,8 hPa 0,0 l/m 5,4 km/h (1 Bft) O-NO 77 0 min 0,000 mm 0,0 UV-I 0 W/m 0,3 C 3,8 C 14,5 km/h (3 Bft)
11.10.2015 05:25 3,8 C 78 % 1016,8 hPa 0,0 l/m 2,8 km/h (1 Bft) O-NO 57 0 min 0,000 mm 0,0 UV-I 0 W/m 0,3 C 3,8 C 8,0 km/h (2 Bft)
11.10.2015 05:30 3,7 C 77 % 1016,8 hPa 0,0 l/m 3,9 km/h (1 Bft) O-NO 69 0 min 0,000 mm 0,0 UV-I 0 W/m 0,1 C 3,7 C 12,9 km/h (3 Bft)
11.10.2015 05:35 3,7 C 78 % 1016,8 hPa 0,0 l/m 1,9 km/h (1 Bft) O-NO 62 0 min 0,000 mm 0,0 UV-I 0 W/m 0,2 C 3,7 C 8,0 km/h (2 Bft)
11.10.2015 05:40 3,7 C 77 % 1016,9 hPa 0,0 l/m 5,4 km/h (1 Bft) NO 45 0 min 0,000 mm 0,0 UV-I 0 W/m 0,1 C 3,7 C 14,5 km/h (3 Bft)
11.10.2015 05:45 3,7 C 77 % 1016,9 hPa 0,0 l/m 3,6 km/h (1 Bft) O-NO 71 0 min 0,000 mm 0,0 UV-I 0 W/m 0,1 C 3,7 C 8,0 km/h (2 Bft)
11.10.2015 05:50 3,6 C 77 % 1017,0 hPa 0,0 l/m 6,0 km/h (2 Bft) O-NO 59 0 min 0,000 mm 0,0 UV-I 0 W/m -0,0 C 3,6 C 14,5 km/h (3 Bft)
11.10.2015 05:55 3,6 C 78 % 1017,0 hPa 0,0 l/m 2,7 km/h (1 Bft) O-NO 62 0 min 0,000 mm 0,0 UV-I 0 W/m 0,1 C 3,6 C 8,0 km/h (2 Bft)
11.10.2015 06:00 3,4 C 78 % 1017,0 hPa 0,0 l/m 4,7 km/h (1 Bft) O-NO 59 0 min 0,025 mm 0,0 UV-I 0 W/m -0,1 C 3,4 C 14,5 km/h (3 Bft)
11.10.2015 06:05 3,4 C 77 % 1017,0 hPa 0,0 l/m 4,4 km/h (1 Bft) NO 51 0 min 0,000 mm 0,0 UV-I 0 W/m -0,2 C 3,4 C 14,5 km/h (3 Bft)
11.10.2015 06:10 3,4 C 77 % 1017,1 hPa 0,0 l/m 5,5 km/h (1 Bft) N-NO 30 0 min 0,000 mm 0,0 UV-I 0 W/m -0,2 C 3,4 C 16,1 km/h (3 Bft)
11.10.2015 06:15 3,3 C 77 % 1017,1 hPa 0,0 l/m 2,8 km/h (1 Bft) O-NO 67 0 min 0,000 mm 0,0 UV-I 0 W/m -0,3 C 3,3 C 6,4 km/h (2 Bft)
11.10.2015 06:20 3,3 C 77 % 1017,1 hPa 0,0 l/m 1,7 km/h (1 Bft) O-NO 57 0 min 0,000 mm 0,0 UV-I 0 W/m -0,3 C 3,3 C 9,7 km/h (2 Bft)
11.10.2015 06:25 3,3 C 77 % 1017,0 hPa 0,0 l/m 2,7 km/h (1 Bft) NO 36 0 min 0,000 mm 0,0 UV-I 0 W/m -0,3 C 3,3 C 8,0 km/h (2 Bft)
11.10.2015 06:30 3,2 C 77 % 1017,1 hPa 0,0 l/m 7,1 km/h (2 Bft) N-NO 33 0 min 0,000 mm 0,0 UV-I 0 W/m -0,4 C 2,5 C 14,5 km/h (3 Bft)
11.10.2015 06:35 3,3 C 77 % 1017,0 hPa 0,0 l/m 1,8 km/h (1 Bft) NO 54 0 min 0,000 mm 0,0 UV-I 0 W/m -0,3 C 3,3 C 6,4 km/h (2 Bft)
11.10.2015 06:40 3,2 C 77 % 1016,9 hPa 0,0 l/m 4,2 km/h (1 Bft) NO 50 0 min 0,000 mm 0,0 UV-I 0 W/m -0,4 C 3,2 C 11,3 km/h (2 Bft)
11.10.2015 06:45 3,2 C 77 % 1017,0 hPa 0,0 l/m 4,2 km/h (1 Bft) NO 53 0 min 0,000 mm 0,0 UV-I 0 W/m -0,4 C 3,2 C 16,1 km/h (3 Bft)
11.10.2015 06:50 3,2 C 77 % 1017,0 hPa 0,0 l/m 3,5 km/h (1 Bft) O-NO 77 0 min 0,000 mm 0,0 UV-I 0 W/m -0,4 C 3,2 C 14,5 km/h (3 Bft)
11.10.2015 06:55 3,1 C 77 % 1017,0 hPa 0,0 l/m 2,5 km/h (1 Bft) O-NO 59 0 min 0,000 mm 0,0 UV-I 0 W/m -0,5 C 3,1 C 6,4 km/h (2 Bft)
11.10.2015 07:00 3,0 C 77 % 1017,0 hPa 0,0 l/m 5,0 km/h (1 Bft) NO 55 0 min 0,026 mm 0,0 UV-I 0 W/m -0,6 C 3,0 C 14,5 km/h (3 Bft)
11.10.2015 07:05 2,9 C 77 % 1017,0 hPa 0,0 l/m 2,2 km/h (1 Bft) O 99 0 min 0,000 mm 0,0 UV-I 0 W/m -0,7 C 2,9 C 8,0 km/h (2 Bft)
11.10.2015 07:10 2,9 C 77 % 1017,1 hPa 0,0 l/m 3,8 km/h (1 Bft) NO 42 0 min 0,000 mm 0,0 UV-I 0 W/m -0,7 C 2,9 C 8,0 km/h (2 Bft)
11.10.2015 07:15 2,9 C 77 % 1017,0 hPa 0,0 l/m 4,4 km/h (1 Bft) O-NO 67 0 min 0,000 mm 0,0 UV-I 0 W/m -0,7 C 2,9 C 11,3 km/h (2 Bft)
11.10.2015 07:20 2,9 C 77 % 1017,0 hPa 0,0 l/m 4,1 km/h (1 Bft) NO 51 0 min 0,000 mm 0,0 UV-I 0 W/m -0,7 C 2,9 C 11,3 km/h (2 Bft)
11.10.2015 07:25 2,8 C 77 % 1017,1 hPa 0,0 l/m 4,5 km/h (1 Bft) O 80 0 min 0,000 mm 0,0 UV-I 0 W/m -0,8 C 2,8 C 11,3 km/h (2 Bft)
11.10.2015 07:30 2,8 C 77 % 1017,2 hPa 0,0 l/m 3,8 km/h (1 Bft) NO 46 0 min 0,000 mm 0,0 UV-I 0 W/m -0,8 C 2,8 C 16,1 km/h (3 Bft)
11.10.2015 07:35 2,8 C 77 % 1017,3 hPa 0,0 l/m 1,9 km/h (1 Bft) O-NO 74 0 min 0,000 mm 0,0 UV-I 0 W/m -0,8 C 2,8 C 11,3 km/h (2 Bft)
11.10.2015 07:40 2,8 C 77 % 1017,3 hPa 0,0 l/m 3,1 km/h (1 Bft) O-NO 64 0 min 0,000 mm 0,0 UV-I 0 W/m -0,8 C 2,8 C 9,7 km/h (2 Bft)
11.10.2015 07:45 2,9 C 77 % 1017,3 hPa 0,0 l/m 1,8 km/h (1 Bft) O-NO 67 0 min 0,000 mm 0,0 UV-I 1 W/m -0,7 C 2,9 C 8,0 km/h (2 Bft)
11.10.2015 07:50 2,8 C 77 % 1017,3 hPa 0,0 l/m 1,2 km/h (1 Bft) O-NO 61 0 min 0,000 mm 0,0 UV-I 6 W/m -0,8 C 2,8 C 4,8 km/h (1 Bft)
11.10.2015 07:55 2,7 C 77 % 1017,3 hPa 0,0 l/m 1,9 km/h (1 Bft) NO 37 0 min 0,000 mm 0,0 UV-I 8 W/m -0,9 C 2,7 C 6,4 km/h (2 Bft)
11.10.2015 08:00 2,6 C 78 % 1017,2 hPa 0,0 l/m 1,2 km/h (1 Bft) N-NO 22 0 min 0,000 mm 0,0 UV-I 12 W/m -0,8 C 2,6 C 4,8 km/h (1 Bft)
11.10.2015 08:05 2,7 C 78 % 1017,3 hPa 0,0 l/m 2,7 km/h (1 Bft) O-NO 61 0 min 0,000 mm 0,0 UV-I 15 W/m -0,7 C 2,7 C 9,7 km/h (2 Bft)
11.10.2015 08:10 2,8 C 77 % 1017,3 hPa 0,0 l/m 1,1 km/h (1 Bft) O-NO 78 0 min 0,000 mm 0,0 UV-I 19 W/m -0,8 C 2,8 C 4,8 km/h (1 Bft)
11.10.2015 08:15 3,0 C 77 % 1017,3 hPa 0,0 l/m 5,4 km/h (1 Bft) O-NO 76 0 min 0,000 mm 0,0 UV-I 25 W/m -0,6 C 3,0 C 11,3 km/h (2 Bft)
11.10.2015 08:20 3,1 C 76 % 1017,4 hPa 0,0 l/m 4,3 km/h (1 Bft) O-SO 119 0 min 0,000 mm 0,0 UV-I 31 W/m -0,7 C 3,1 C 9,7 km/h (2 Bft)
11.10.2015 08:25 3,2 C 76 % 1017,4 hPa 0,0 l/m 4,0 km/h (1 Bft) O 82 0 min 0,000 mm 0,0 UV-I 40 W/m -0,6 C 3,2 C 11,3 km/h (2 Bft)
11.10.2015 08:30 3,3 C 76 % 1017,4 hPa 0,0 l/m 5,9 km/h (2 Bft) O 82 0 min 0,000 mm 0,0 UV-I 49 W/m -0,5 C 3,3 C 11,3 km/h (2 Bft)
11.10.2015 08:35 3,4 C 75 % 1017,5 hPa 0,0 l/m 6,7 km/h (2 Bft) O-NO 64 0 min 0,000 mm 0,0 UV-I 59 W/m -0,6 C 3,1 C 14,5 km/h (3 Bft)
11.10.2015 08:40 3,6 C 75 % 1017,5 hPa 0,0 l/m 8,5 km/h (2 Bft) NO 47 0 min 0,000 mm 0,0 UV-I 70 W/m -0,4 C 1,7 C 14,5 km/h (3 Bft)
11.10.2015 08:45 3,7 C 75 % 1017,6 hPa 0,0 l/m 5,7 km/h (1 Bft) O-NO 57 0 min 0,000 mm 0,0 UV-I 82 W/m -0,3 C 3,7 C 12,9 km/h (3 Bft)
11.10.2015 08:50 3,9 C 74 % 1017,5 hPa 0,0 l/m 9,0 km/h (2 Bft) O-NO 69 5 min 0,000 mm 0,0 UV-I 95 W/m -0,3 C 1,6 C 17,7 km/h (3 Bft)
11.10.2015 08:55 4,0 C 73 % 1017,5 hPa 0,0 l/m 10,3 km/h (2 Bft) O-NO 69 5 min 0,000 mm 0,0 UV-I 107 W/m -0,4 C 0,8 C 19,3 km/h (3 Bft)
11.10.2015 09:00 4,2 C 73 % 1017,6 hPa 0,0 l/m 6,1 km/h (2 Bft) O 83 5 min 0,025 mm 0,0 UV-I 120 W/m -0,2 C 4,2 C 20,9 km/h (4 Bft)
11.10.2015 09:05 4,3 C 72 % 1017,6 hPa 0,0 l/m 7,5 km/h (2 Bft) O-NO 60 5 min 0,000 mm 0,0 UV-I 133 W/m -0,3 C 3,3 C 17,7 km/h (3 Bft)
11.10.2015 09:10 4,5 C 71 % 1017,7 hPa 0,0 l/m 7,8 km/h (2 Bft) NO 47 5 min 0,000 mm 0,0 UV-I 143 W/m -0,3 C 3,2 C 17,7 km/h (3 Bft)
11.10.2015 09:15 4,7 C 71 % 1017,8 hPa 0,0 l/m 8,5 km/h (2 Bft) NO 48 5 min 0,000 mm 0,5 UV-I 156 W/m -0,1 C 2,9 C 17,7 km/h (3 Bft)
11.10.2015 09:20 4,9 C 71 % 1017,7 hPa 0,0 l/m 4,2 km/h (1 Bft) O-NO 60 5 min 0,000 mm 0,5 UV-I 167 W/m 0,1 C 4,9 C 11,3 km/h (2 Bft)
11.10.2015 09:25 5,1 C 69 % 1017,8 hPa 0,0 l/m 11,0 km/h (2 Bft) O-NO 67 5 min 0,000 mm 0,5 UV-I 176 W/m -0,1 C 1,5 C 20,9 km/h (4 Bft)
11.10.2015 09:30 5,2 C 69 % 1017,8 hPa 0,0 l/m 8,3 km/h (2 Bft) NO 48 5 min 0,000 mm 0,6 UV-I 188 W/m -0,0 C 3,6 C 20,9 km/h (4 Bft)
11.10.2015 09:35 5,3 C 69 % 1017,8 hPa 0,0 l/m 6,9 km/h (2 Bft) NO 45 5 min 0,000 mm 0,6 UV-I 201 W/m 0,1 C 4,9 C 16,1 km/h (3 Bft)
11.10.2015 09:40 5,4 C 69 % 1017,6 hPa 0,0 l/m 9,8 km/h (2 Bft) NO 52 5 min 0,000 mm 0,6 UV-I 213 W/m 0,2 C 2,7 C 22,5 km/h (4 Bft)
11.10.2015 09:45 5,6 C 68 % 1017,6 hPa 0,0 l/m 7,5 km/h (2 Bft) O-NO 60 5 min 0,000 mm 0,7 UV-I 224 W/m 0,2 C 4,6 C 20,9 km/h (4 Bft)
11.10.2015 09:50 5,8 C 67 % 1017,6 hPa 0,0 l/m 5,5 km/h (1 Bft) NO 51 5 min 0,000 mm 0,7 UV-I 235 W/m 0,2 C 5,8 C 19,3 km/h (3 Bft)
11.10.2015 09:55 5,9 C 67 % 1017,8 hPa 0,0 l/m 5,8 km/h (2 Bft) O-NO 60 5 min 0,000 mm 0,7 UV-I 246 W/m 0,3 C 5,9 C 14,5 km/h (3 Bft)
11.10.2015 10:00 6,2 C 68 % 1017,8 hPa 0,0 l/m 0,7 km/h (0 Bft) O-NO 74 5 min 0,102 mm 0,8 UV-I 258 W/m 0,7 C 6,2 C 6,4 km/h (2 Bft)
11.10.2015 10:05 6,4 C 66 % 1017,8 hPa 0,0 l/m 4,7 km/h (1 Bft) O-NO 65 5 min 0,000 mm 0,8 UV-I 268 W/m 0,5 C 6,4 C 16,1 km/h (3 Bft)
11.10.2015 10:10 6,5 C 65 % 1017,9 hPa 0,0 l/m 7,1 km/h (2 Bft) O 86 5 min 0,000 mm 0,9 UV-I 280 W/m 0,4 C 5,9 C 19,3 km/h (3 Bft)
11.10.2015 10:15 6,6 C 64 % 1017,9 hPa 0,0 l/m 9,9 km/h (2 Bft) N-NO 30 5 min 0,000 mm 0,9 UV-I 291 W/m 0,3 C 3,9 C 20,9 km/h (4 Bft)
11.10.2015 10:20 6,7 C 64 % 1017,8 hPa 0,0 l/m 8,5 km/h (2 Bft) NO 51 5 min 0,000 mm 1,0 UV-I 303 W/m 0,4 C 5,0 C 19,3 km/h (3 Bft)
11.10.2015 10:25 6,9 C 64 % 1017,9 hPa 0,0 l/m 6,5 km/h (2 Bft) O-NO 67 5 min 0,000 mm 1,0 UV-I 312 W/m 0,6 C 6,8 C 19,3 km/h (3 Bft)
11.10.2015 10:30 7,1 C 64 % 1017,8 hPa 0,0 l/m 8,7 km/h (2 Bft) NO 40 5 min 0,000 mm 1,1 UV-I 322 W/m 0,8 C 5,3 C 24,1 km/h (4 Bft)
11.10.2015 10:35 7,2 C 63 % 1017,9 hPa 0,0 l/m 9,1 km/h (2 Bft) NO 42 5 min 0,000 mm 1,1 UV-I 332 W/m 0,6 C 5,1 C 19,3 km/h (3 Bft)
11.10.2015 10:40 7,2 C 65 % 1017,9 hPa 0,0 l/m 6,0 km/h (2 Bft) SO 128 5 min 0,000 mm 1,2 UV-I 342 W/m 1,1 C 7,2 C 17,7 km/h (3 Bft)
11.10.2015 10:45 7,4 C 63 % 1017,9 hPa 0,0 l/m 8,8 km/h (2 Bft) O-NO 67 5 min 0,000 mm 1,2 UV-I 353 W/m 0,8 C 5,5 C 19,3 km/h (3 Bft)
11.10.2015 10:50 7,6 C 62 % 1017,9 hPa 0,0 l/m 7,4 km/h (2 Bft) O-NO 75 5 min 0,000 mm 1,3 UV-I 362 W/m 0,8 C 6,8 C 19,3 km/h (3 Bft)
11.10.2015 10:55 7,6 C 62 % 1017,8 hPa 0,0 l/m 10,0 km/h (2 Bft) N 11 5 min 0,000 mm 1,3 UV-I 373 W/m 0,8 C 4,9 C 24,1 km/h (4 Bft)
11.10.2015 11:00 7,8 C 62 % 1017,8 hPa 0,0 l/m 5,6 km/h (1 Bft) O-NO 59 5 min 0,178 mm 1,4 UV-I 387 W/m 1,0 C 7,8 C 16,1 km/h (3 Bft)
11.10.2015 11:05 8,1 C 62 % 1017,8 hPa 0,0 l/m 8,5 km/h (2 Bft) O-SO 107 5 min 0,000 mm 1,4 UV-I 403 W/m 1,3 C 6,5 C 17,7 km/h (3 Bft)
11.10.2015 11:10 8,1 C 60 % 1017,8 hPa 0,0 l/m 10,0 km/h (2 Bft) O-NO 63 5 min 0,000 mm 1,5 UV-I 419 W/m 0,8 C 5,5 C 22,5 km/h (4 Bft)
11.10.2015 11:15 8,2 C 61 % 1017,9 hPa 0,0 l/m 8,3 km/h (2 Bft) NO 40 5 min 0,000 mm 1,6 UV-I 441 W/m 1,1 C 6,7 C 19,3 km/h (3 Bft)
11.10.2015 11:20 8,4 C 61 % 1017,9 hPa 0,0 l/m 7,2 km/h (2 Bft) O-NO 59 5 min 0,000 mm 1,6 UV-I 456 W/m 1,3 C 7,8 C 16,1 km/h (3 Bft)
11.10.2015 11:25 8,6 C 58 % 1017,9 hPa 0,0 l/m 8,1 km/h (2 Bft) O-SO 102 5 min 0,000 mm 1,7 UV-I 463 W/m 0,8 C 7,3 C 19,3 km/h (3 Bft)
11.10.2015 11:30 8,6 C 59 % 1017,8 hPa 0,0 l/m 7,7 km/h (2 Bft) NO 45 5 min 0,000 mm 1,7 UV-I 469 W/m 1,0 C 7,6 C 20,9 km/h (4 Bft)
11.10.2015 11:35 8,8 C 60 % 1017,8 hPa 0,0 l/m 5,8 km/h (2 Bft) O-NO 65 5 min 0,000 mm 1,8 UV-I 464 W/m 1,5 C 8,8 C 16,1 km/h (3 Bft)
11.10.2015 11:40 8,9 C 58 % 1017,7 hPa 0,0 l/m 6,3 km/h (2 Bft) O-NO 69 5 min 0,000 mm 1,8 UV-I 457 W/m 1,1 C 8,9 C 17,7 km/h (3 Bft)
11.10.2015 11:45 8,9 C 58 % 1017,8 hPa 0,0 l/m 10,2 km/h (2 Bft) O-NO 69 5 min 0,000 mm 1,8 UV-I 457 W/m 1,1 C 6,3 C 20,9 km/h (4 Bft)
11.10.2015 11:50 9,2 C 58 % 1017,7 hPa 0,0 l/m 5,1 km/h (1 Bft) O-NO 71 5 min 0,000 mm 1,9 UV-I 464 W/m 1,4 C 9,2 C 17,7 km/h (3 Bft)
11.10.2015 11:55 9,1 C 56 % 1017,7 hPa 0,0 l/m 8,8 km/h (2 Bft) O-NO 70 5 min 0,000 mm 1,9 UV-I 471 W/m 0,8 C 7,4 C 17,7 km/h (3 Bft)
11.10.2015 12:00 9,1 C 56 % 1017,7 hPa 0,0 l/m 8,3 km/h (2 Bft) O-NO 63 5 min 0,000 mm 2,0 UV-I 477 W/m 0,8 C 7,7 C 16,1 km/h (3 Bft)
11.10.2015 12:05 9,2 C 57 % 1017,7 hPa 0,0 l/m 7,8 km/h (2 Bft) O 85 5 min 0,228 mm 2,0 UV-I 483 W/m 1,1 C 8,2 C 22,5 km/h (4 Bft)
11.10.2015 12:10 9,4 C 57 % 1017,7 hPa 0,0 l/m 9,4 km/h (2 Bft) O-NO 58 5 min 0,000 mm 2,0 UV-I 485 W/m 1,3 C 7,3 C 16,1 km/h (3 Bft)
11.10.2015 12:15 9,7 C 57 % 1017,7 hPa 0,0 l/m 7,7 km/h (2 Bft) O-NO 57 5 min 0,000 mm 2,1 UV-I 492 W/m 1,6 C 8,7 C 24,1 km/h (4 Bft)
11.10.2015 12:20 10,2 C 55 % 1017,6 hPa 0,0 l/m 4,3 km/h (1 Bft) O-NO 67 5 min 0,000 mm 2,1 UV-I 498 W/m 1,6 C 10,2 C 22,5 km/h (4 Bft)
11.10.2015 12:25 10,1 C 55 % 1017,7 hPa 0,0 l/m 5,3 km/h (1 Bft) O-NO 76 5 min 0,000 mm 2,2 UV-I 504 W/m 1,5 C 10,1 C 17,7 km/h (3 Bft)
11.10.2015 12:30 10,1 C 54 % 1017,6 hPa 0,0 l/m 8,6 km/h (2 Bft) N 5 5 min 0,000 mm 2,2 UV-I 509 W/m 1,2 C 8,6 C 19,3 km/h (3 Bft)
11.10.2015 12:35 10,2 C 54 % 1017,5 hPa 0,0 l/m 5,0 km/h (1 Bft) O 80 5 min 0,000 mm 2,2 UV-I 512 W/m 1,3 C 10,2 C 12,9 km/h (3 Bft)
11.10.2015 12:40 10,4 C 54 % 1017,5 hPa 0,0 l/m 3,2 km/h (1 Bft) NO 48 5 min 0,000 mm 2,2 UV-I 516 W/m 1,5 C 10,4 C 17,7 km/h (3 Bft)
11.10.2015 12:45 10,4 C 53 % 1017,5 hPa 0,0 l/m 10,1 km/h (2 Bft) NO 52 5 min 0,000 mm 2,2 UV-I 519 W/m 1,2 C 8,0 C 24,1 km/h (4 Bft)
11.10.2015 12:50 10,4 C 55 % 1017,4 hPa 0,0 l/m 4,4 km/h (1 Bft) O-NO 61 5 min 0,000 mm 2,3 UV-I 520 W/m 1,8 C 10,4 C 16,1 km/h (3 Bft)
11.10.2015 12:55 10,8 C 54 % 1017,4 hPa 0,0 l/m 3,6 km/h (1 Bft) O-NO 63 5 min 0,000 mm 2,3 UV-I 525 W/m 1,9 C 10,8 C 19,3 km/h (3 Bft)
11.10.2015 13:00 10,9 C 51 % 1017,4 hPa 0,0 l/m 9,5 km/h (2 Bft) O-NO 61 5 min 0,000 mm 2,3 UV-I 527 W/m 1,2 C 8,9 C 22,5 km/h (4 Bft)
11.10.2015 13:05 10,8 C 51 % 1017,3 hPa 0,0 l/m 6,1 km/h (2 Bft) N-NO 33 5 min 0,280 mm 2,3 UV-I 530 W/m 1,1 C 10,8 C 14,5 km/h (3 Bft)
11.10.2015 13:10 10,8 C 52 % 1017,4 hPa 0,0 l/m 8,6 km/h (2 Bft) O-SO 106 5 min 0,000 mm 2,3 UV-I 529 W/m 1,3 C 9,3 C 20,9 km/h (4 Bft)
11.10.2015 13:15 10,7 C 52 % 1017,4 hPa 0,0 l/m 8,1 km/h (2 Bft) O-NO 75 5 min 0,000 mm 2,3 UV-I 531 W/m 1,3 C 9,5 C 14,5 km/h (3 Bft)
11.10.2015 13:20 11,1 C 53 % 1017,4 hPa 0,0 l/m 3,4 km/h (1 Bft) NO 48 5 min 0,000 mm 2,3 UV-I 531 W/m 1,9 C 11,1 C 12,9 km/h (3 Bft)
11.10.2015 13:25 11,2 C 52 % 1017,3 hPa 0,0 l/m 5,2 km/h (1 Bft) O-NO 69 5 min 0,000 mm 2,3 UV-I 532 W/m 1,7 C 11,2 C 22,5 km/h (4 Bft)
11.10.2015 13:30 11,5 C 52 % 1017,3 hPa 0,0 l/m 2,8 km/h (1 Bft) N-NO 33 5 min 0,000 mm 2,3 UV-I 531 W/m 2,0 C 11,5 C 16,1 km/h (3 Bft)
11.10.2015 13:35 11,8 C 53 % 1017,2 hPa 0,0 l/m 1,1 km/h (1 Bft) NO 41 5 min 0,000 mm 2,3 UV-I 531 W/m 2,5 C 11,8 C 17,7 km/h (3 Bft)
11.10.2015 13:40 12,3 C 50 % 1017,2 hPa 0,0 l/m 4,3 km/h (1 Bft) O-SO 105 5 min 0,000 mm 2,3 UV-I 529 W/m 2,2 C 12,3 C 16,1 km/h (3 Bft)
11.10.2015 13:45 11,8 C 48 % 1017,3 hPa 0,0 l/m 10,9 km/h (2 Bft) N-NO 32 5 min 0,000 mm 2,3 UV-I 528 W/m 1,2 C 9,1 C 20,9 km/h (4 Bft)
11.10.2015 13:50 11,6 C 51 % 1017,2 hPa 0,0 l/m 4,2 km/h (1 Bft) NO 40 5 min 0,000 mm 2,2 UV-I 528 W/m 1,8 C 11,6 C 16,1 km/h (3 Bft)
11.10.2015 13:55 11,6 C 51 % 1017,2 hPa 0,0 l/m 8,7 km/h (2 Bft) O-NO 67 5 min 0,000 mm 2,2 UV-I 526 W/m 1,8 C 10,1 C 17,7 km/h (3 Bft)
11.10.2015 14:00 11,5 C 50 % 1017,1 hPa 0,0 l/m 9,2 km/h (2 Bft) O-NO 63 5 min 0,000 mm 2,2 UV-I 522 W/m 1,4 C 9,7 C 22,5 km/h (4 Bft)
11.10.2015 14:05 11,5 C 51 % 1017,1 hPa 0,0 l/m 8,5 km/h (2 Bft) NO 55 5 min 0,279 mm 2,2 UV-I 520 W/m 1,7 C 10,1 C 20,9 km/h (4 Bft)
11.10.2015 14:10 11,4 C 52 % 1017,1 hPa 0,0 l/m 6,0 km/h (2 Bft) N-NO 13 5 min 0,000 mm 2,2 UV-I 517 W/m 1,9 C 11,4 C 19,3 km/h (3 Bft)
11.10.2015 14:15 11,5 C 51 % 1017,1 hPa 0,0 l/m 5,4 km/h (1 Bft) NO 42 5 min 0,000 mm 2,1 UV-I 513 W/m 1,7 C 11,5 C 17,7 km/h (3 Bft)
11.10.2015 14:20 11,3 C 49 % 1017,0 hPa 0,0 l/m 13,8 km/h (3 Bft) NO 56 5 min 0,000 mm 2,1 UV-I 512 W/m 1,0 C 7,2 C 24,1 km/h (4 Bft)
11.10.2015 14:25 11,2 C 51 % 1017,0 hPa 0,0 l/m 5,2 km/h (1 Bft) O-NO 59 5 min 0,000 mm 2,1 UV-I 507 W/m 1,4 C 11,2 C 19,3 km/h (3 Bft)
11.10.2015 14:30 11,3 C 51 % 1017,0 hPa 0,0 l/m 5,8 km/h (2 Bft) NO 55 5 min 0,000 mm 2,0 UV-I 503 W/m 1,5 C 11,3 C 16,1 km/h (3 Bft)
11.10.2015 14:35 11,4 C 52 % 1016,9 hPa 0,0 l/m 5,1 km/h (1 Bft) NO 53 5 min 0,000 mm 2,0 UV-I 499 W/m 1,9 C 11,4 C 14,5 km/h (3 Bft)
11.10.2015 14:40 11,6 C 51 % 1016,9 hPa 0,0 l/m 4,8 km/h (1 Bft) O-NO 59 5 min 0,000 mm 1,9 UV-I 495 W/m 1,8 C 11,6 C 16,1 km/h (3 Bft)
11.10.2015 14:45 11,4 C 50 % 1016,8 hPa 0,0 l/m 10,0 km/h (2 Bft) NO 50 5 min 0,000 mm 1,9 UV-I 490 W/m 1,4 C 9,1 C 22,5 km/h (4 Bft)
11.10.2015 14:50 11,4 C 51 % 1016,8 hPa 0,0 l/m 4,3 km/h (1 Bft) N-NO 26 5 min 0,000 mm 1,8 UV-I 484 W/m 1,6 C 11,4 C 12,9 km/h (3 Bft)
11.10.2015 14:55 11,7 C 52 % 1016,8 hPa 0,0 l/m 3,2 km/h (1 Bft) NO 38 5 min 0,000 mm 1,8 UV-I 479 W/m 2,2 C 11,7 C 17,7 km/h (3 Bft)
11.10.2015 15:00 11,8 C 50 % 1016,8 hPa 0,0 l/m 7,2 km/h (2 Bft) O-NO 62 5 min 0,000 mm 1,7 UV-I 473 W/m 1,7 C 11,3 C 20,9 km/h (4 Bft)
11.10.2015 15:05 11,4 C 50 % 1016,8 hPa 0,0 l/m 12,6 km/h (3 Bft) O 86 5 min 0,279 mm 1,7 UV-I 466 W/m 1,4 C 7,8 C 24,1 km/h (4 Bft)
11.10.2015 15:10 11,3 C 49 % 1016,7 hPa 0,0 l/m 12,7 km/h (3 Bft) NO 51 5 min 0,000 mm 1,6 UV-I 460 W/m 1,0 C 7,7 C 24,1 km/h (4 Bft)
11.10.2015 15:15 11,5 C 50 % 1016,7 hPa 0,0 l/m 5,2 km/h (1 Bft) N-NO 25 5 min 0,000 mm 1,6 UV-I 454 W/m 1,4 C 11,5 C 12,9 km/h (3 Bft)
11.10.2015 15:20 11,6 C 51 % 1016,6 hPa 0,0 l/m 3,3 km/h (1 Bft) O 96 5 min 0,000 mm 1,5 UV-I 446 W/m 1,8 C 11,6 C 19,3 km/h (3 Bft)
11.10.2015 15:25 11,7 C 51 % 1016,7 hPa 0,0 l/m 2,2 km/h (1 Bft) N-NO 26 5 min 0,000 mm 1,5 UV-I 439 W/m 1,9 C 11,7 C 11,3 km/h (2 Bft)
11.10.2015 15:30 11,7 C 51 % 1016,7 hPa 0,0 l/m 3,9 km/h (1 Bft) NO 55 5 min 0,000 mm 1,4 UV-I 432 W/m 1,9 C 11,7 C 16,1 km/h (3 Bft)
11.10.2015 15:35 11,4 C 51 % 1016,6 hPa 0,0 l/m 11,0 km/h (2 Bft) O-NO 58 5 min 0,000 mm 1,4 UV-I 424 W/m 1,6 C 8,6 C 22,5 km/h (4 Bft)
11.10.2015 15:40 11,3 C 51 % 1016,6 hPa 0,0 l/m 8,2 km/h (2 Bft) O 79 5 min 0,000 mm 1,3 UV-I 414 W/m 1,5 C 10,1 C 16,1 km/h (3 Bft)
11.10.2015 15:45 11,2 C 52 % 1016,5 hPa 0,0 l/m 5,1 km/h (1 Bft) NO 49 5 min 0,000 mm 1,2 UV-I 370 W/m 1,7 C 11,2 C 16,1 km/h (3 Bft)
11.10.2015 15:50 11,5 C 52 % 1016,7 hPa 0,0 l/m 4,6 km/h (1 Bft) O-NO 74 5 min 0,000 mm 1,2 UV-I 377 W/m 2,0 C 11,5 C 19,3 km/h (3 Bft)
11.10.2015 15:55 11,2 C 52 % 1016,5 hPa 0,0 l/m 8,2 km/h (2 Bft) O-NO 69 5 min 0,000 mm 1,2 UV-I 379 W/m 1,7 C 10,0 C 20,9 km/h (4 Bft)
11.10.2015 16:00 11,4 C 51 % 1016,6 hPa 0,0 l/m 4,5 km/h (1 Bft) O-NO 59 5 min 0,000 mm 1,1 UV-I 362 W/m 1,6 C 11,4 C 19,3 km/h (3 Bft)
11.10.2015 16:05 11,3 C 52 % 1016,6 hPa 0,0 l/m 3,8 km/h (1 Bft) N 9 5 min 0,229 mm 1,0 UV-I 340 W/m 1,8 C 11,3 C 19,3 km/h (3 Bft)
11.10.2015 16:10 11,3 C 52 % 1016,7 hPa 0,0 l/m 2,4 km/h (1 Bft) NO 46 5 min 0,000 mm 1,0 UV-I 340 W/m 1,8 C 11,3 C 17,7 km/h (3 Bft)
11.10.2015 16:15 11,1 C 51 % 1016,7 hPa 0,0 l/m 10,6 km/h (2 Bft) NO 41 5 min 0,000 mm 0,9 UV-I 342 W/m 1,4 C 8,5 C 20,9 km/h (4 Bft)
11.10.2015 16:20 11,1 C 54 % 1016,7 hPa 0,0 l/m 2,8 km/h (1 Bft) O-NO 66 5 min 0,000 mm 0,9 UV-I 326 W/m 2,2 C 11,1 C 12,9 km/h (3 Bft)
11.10.2015 16:25 11,1 C 53 % 1016,6 hPa 0,0 l/m 7,6 km/h (2 Bft) NO 38 5 min 0,000 mm 0,9 UV-I 317 W/m 1,9 C 10,3 C 20,9 km/h (4 Bft)
11.10.2015 16:30 10,8 C 52 % 1016,7 hPa 0,0 l/m 15,3 km/h (3 Bft) O-NO 76 5 min 0,000 mm 0,8 UV-I 321 W/m 1,3 C 6,0 C 25,7 km/h (4 Bft)
11.10.2015 16:35 10,6 C 52 % 1016,7 hPa 0,0 l/m 10,7 km/h (2 Bft) NO 44 5 min 0,000 mm 0,8 UV-I 281 W/m 1,2 C 7,9 C 22,5 km/h (4 Bft)
11.10.2015 16:40 10,5 C 52 % 1016,8 hPa 0,0 l/m 10,8 km/h (2 Bft) O 86 5 min 0,000 mm 0,7 UV-I 293 W/m 1,1 C 7,7 C 25,7 km/h (4 Bft)
11.10.2015 16:45 10,4 C 52 % 1016,8 hPa 0,0 l/m 9,0 km/h (2 Bft) NO 40 5 min 0,000 mm 0,7 UV-I 272 W/m 1,0 C 8,6 C 22,5 km/h (4 Bft)
11.10.2015 16:50 10,3 C 52 % 1016,7 hPa 0,0 l/m 12,8 km/h (3 Bft) O 89 5 min 0,000 mm 0,6 UV-I 256 W/m 0,9 C 6,5 C 29,0 km/h (5 Bft)
11.10.2015 16:55 10,2 C 53 % 1016,7 hPa 0,0 l/m 12,1 km/h (2 Bft) NO 55 5 min 0,000 mm 0,6 UV-I 251 W/m 1,1 C 6,7 C 24,1 km/h (4 Bft)
11.10.2015 17:00 10,3 C 53 % 1016,7 hPa 0,0 l/m 5,8 km/h (2 Bft) O 98 5 min 0,000 mm 0,6 UV-I 208 W/m 1,1 C 10,3 C 17,7 km/h (3 Bft)
11.10.2015 17:05 10,1 C 52 % 1016,8 hPa 0,0 l/m 12,9 km/h (3 Bft) O-NO 61 5 min 0,178 mm 0,5 UV-I 139 W/m 0,7 C 6,2 C 25,7 km/h (4 Bft)
11.10.2015 17:10 9,8 C 53 % 1016,8 hPa 0,0 l/m 12,7 km/h (3 Bft) O-NO 76 5 min 0,000 mm 0,5 UV-I 149 W/m 0,7 C 5,9 C 27,4 km/h (4 Bft)
11.10.2015 17:15 9,8 C 54 % 1016,8 hPa 0,0 l/m 9,5 km/h (2 Bft) O-NO 57 5 min 0,000 mm 0,4 UV-I 186 W/m 0,9 C 7,7 C 19,3 km/h (3 Bft)
11.10.2015 17:20 9,8 C 54 % 1016,9 hPa 0,0 l/m 11,1 km/h (2 Bft) O 86 5 min 0,000 mm 0,0 UV-I 199 W/m 0,9 C 6,8 C 22,5 km/h (4 Bft)
11.10.2015 17:25 9,8 C 55 % 1016,9 hPa 0,0 l/m 6,0 km/h (2 Bft) NO 55 5 min 0,000 mm 0,0 UV-I 183 W/m 1,2 C 9,8 C 19,3 km/h (3 Bft)
11.10.2015 17:30 9,8 C 55 % 1017,0 hPa 0,0 l/m 9,5 km/h (2 Bft) NO 53 5 min 0,000 mm 0,0 UV-I 166 W/m 1,2 C 7,7 C 24,1 km/h (4 Bft)
11.10.2015 17:35 9,7 C 56 % 1017,0 hPa 0,0 l/m 4,4 km/h (1 Bft) NO 55 5 min 0,000 mm 0,0 UV-I 150 W/m 1,4 C 9,7 C 17,7 km/h (3 Bft)
11.10.2015 17:40 9,7 C 57 % 1016,9 hPa 0,0 l/m 6,6 km/h (2 Bft) O-NO 67 5 min 0,000 mm 0,0 UV-I 128 W/m 1,6 C 9,6 C 24,1 km/h (4 Bft)
11.10.2015 17:45 9,6 C 56 % 1017,0 hPa 0,0 l/m 5,8 km/h (2 Bft) NO 50 5 min 0,000 mm 0,0 UV-I 113 W/m 1,3 C 9,6 C 19,3 km/h (3 Bft)
11.10.2015 17:50 9,4 C 58 % 1017,1 hPa 0,0 l/m 5,2 km/h (1 Bft) O-NO 59 5 min 0,000 mm 0,0 UV-I 101 W/m 1,6 C 9,4 C 16,1 km/h (3 Bft)
11.10.2015 17:55 9,2 C 58 % 1017,1 hPa 0,0 l/m 6,0 km/h (2 Bft) O-NO 59 5 min 0,000 mm 0,0 UV-I 86 W/m 1,4 C 9,2 C 14,5 km/h (3 Bft)
11.10.2015 18:00 9,0 C 58 % 1017,2 hPa 0,0 l/m 5,2 km/h (1 Bft) O 81 5 min 0,000 mm 0,0 UV-I 69 W/m 1,2 C 9,0 C 16,1 km/h (3 Bft)
11.10.2015 18:05 8,9 C 60 % 1017,2 hPa 0,0 l/m 1,5 km/h (1 Bft) O-NO 72 5 min 0,101 mm 0,0 UV-I 55 W/m 1,6 C 8,9 C 12,9 km/h (3 Bft)
11.10.2015 18:10 8,8 C 60 % 1017,2 hPa 0,0 l/m 2,8 km/h (1 Bft) O-NO 57 5 min 0,000 mm 0,0 UV-I 48 W/m 1,5 C 8,8 C 12,9 km/h (3 Bft)
11.10.2015 18:15 8,6 C 60 % 1017,2 hPa 0,0 l/m 4,8 km/h (1 Bft) O 86 5 min 0,000 mm 0,0 UV-I 38 W/m 1,3 C 8,6 C 14,5 km/h (3 Bft)
11.10.2015 18:20 8,3 C 62 % 1017,3 hPa 0,0 l/m 4,6 km/h (1 Bft) NO 55 5 min 0,000 mm 0,0 UV-I 30 W/m 1,5 C 8,3 C 16,1 km/h (3 Bft)
11.10.2015 18:25 8,3 C 62 % 1017,3 hPa 0,0 l/m 0,7 km/h (0 Bft) O-NO 63 5 min 0,000 mm 0,0 UV-I 21 W/m 1,5 C 8,3 C 6,4 km/h (2 Bft)
11.10.2015 18:30 8,1 C 63 % 1017,3 hPa 0,0 l/m 3,1 km/h (1 Bft) O 79 5 min 0,000 mm 0,0 UV-I 14 W/m 1,5 C 8,1 C 12,9 km/h (3 Bft)
11.10.2015 18:35 7,9 C 63 % 1017,4 hPa 0,0 l/m 4,2 km/h (1 Bft) O-NO 60 0 min 0,000 mm 0,0 UV-I 11 W/m 1,3 C 7,9 C 12,9 km/h (3 Bft)
11.10.2015 18:40 7,7 C 64 % 1017,4 hPa 0,0 l/m 0,7 km/h (0 Bft) NO 53 0 min 0,000 mm 0,0 UV-I 8 W/m 1,3 C 7,7 C 8,0 km/h (2 Bft)
11.10.2015 18:45 7,4 C 65 % 1017,4 hPa 0,0 l/m 3,1 km/h (1 Bft) N-NO 31 0 min 0,000 mm 0,0 UV-I 6 W/m 1,3 C 7,4 C 12,9 km/h (3 Bft)
11.10.2015 18:50 7,2 C 66 % 1017,5 hPa 0,0 l/m 2,8 km/h (1 Bft) O-NO 60 0 min 0,000 mm 0,0 UV-I 1 W/m 1,3 C 7,2 C 8,0 km/h (2 Bft)
11.10.2015 18:55 7,1 C 66 % 1017,5 hPa 0,0 l/m 3,6 km/h (1 Bft) O-NO 71 0 min 0,000 mm 0,0 UV-I 0 W/m 1,2 C 7,1 C 12,9 km/h (3 Bft)
11.10.2015 19:00 6,9 C 67 % 1017,6 hPa 0,0 l/m 1,8 km/h (1 Bft) NO 55 0 min 0,000 mm 0,0 UV-I 0 W/m 1,2 C 6,9 C 8,0 km/h (2 Bft)
11.10.2015 19:05 6,8 C 67 % 1017,6 hPa 0,0 l/m 2,7 km/h (1 Bft) NO 42 0 min 0,026 mm 0,0 UV-I 0 W/m 1,1 C 6,8 C 9,7 km/h (2 Bft)
11.10.2015 19:10 6,7 C 68 % 1017,6 hPa 0,0 l/m 1,9 km/h (1 Bft) NO 41 0 min 0,000 mm 0,0 UV-I 0 W/m 1,2 C 6,7 C 11,3 km/h (2 Bft)
11.10.2015 19:15 6,6 C 68 % 1017,7 hPa 0,0 l/m 0,9 km/h (0 Bft) O-NO 57 0 min 0,000 mm 0,0 UV-I 0 W/m 1,1 C 6,6 C 6,4 km/h (2 Bft)
11.10.2015 19:20 6,4 C 69 % 1017,7 hPa 0,0 l/m 1,3 km/h (1 Bft) O-NO 63 0 min 0,000 mm 0,0 UV-I 0 W/m 1,1 C 6,4 C 6,4 km/h (2 Bft)
11.10.2015 19:25 6,3 C 69 % 1017,8 hPa 0,0 l/m 0,6 km/h (0 Bft) NO 53 0 min 0,000 mm 0,0 UV-I 0 W/m 1,0 C 6,3 C 4,8 km/h (1 Bft)
11.10.2015 19:30 6,2 C 69 % 1017,9 hPa 0,0 l/m 1,0 km/h (0 Bft) NO 55 0 min 0,000 mm 0,0 UV-I 0 W/m 0,9 C 6,2 C 4,8 km/h (1 Bft)
11.10.2015 19:35 6,2 C 70 % 1017,9 hPa 0,0 l/m 5,3 km/h (1 Bft) N 355 0 min 0,000 mm 0,0 UV-I 0 W/m 1,1 C 6,2 C 12,9 km/h (3 Bft)
11.10.2015 19:40 6,1 C 70 % 1017,9 hPa 0,0 l/m 4,2 km/h (1 Bft) O-NO 65 0 min 0,000 mm 0,0 UV-I 0 W/m 1,0 C 6,1 C 12,9 km/h (3 Bft)
11.10.2015 19:45 6,1 C 70 % 1018,0 hPa 0,0 l/m 3,2 km/h (1 Bft) O-SO 117 0 min 0,000 mm 0,0 UV-I 0 W/m 1,0 C 6,1 C 8,0 km/h (2 Bft)
11.10.2015 19:50 5,9 C 71 % 1018,0 hPa 0,0 l/m 2,0 km/h (1 Bft) NO 42 0 min 0,000 mm 0,0 UV-I 0 W/m 1,1 C 5,9 C 6,4 km/h (2 Bft)
11.10.2015 19:55 5,8 C 70 % 1018,2 hPa 0,0 l/m 4,9 km/h (1 Bft) O-NO 62 0 min 0,000 mm 0,0 UV-I 0 W/m 0,8 C 5,8 C 12,9 km/h (3 Bft)
11.10.2015 20:00 5,8 C 71 % 1018,2 hPa 0,0 l/m 2,9 km/h (1 Bft) O 89 0 min 0,000 mm 0,0 UV-I 0 W/m 1,0 C 5,8 C 11,3 km/h (2 Bft)
11.10.2015 20:05 5,7 C 71 % 1018,2 hPa 0,0 l/m 4,8 km/h (1 Bft) NO 43 0 min 0,025 mm 0,0 UV-I 0 W/m 0,9 C 5,7 C 11,3 km/h (2 Bft)
11.10.2015 20:10 5,7 C 71 % 1018,2 hPa 0,0 l/m 1,6 km/h (1 Bft) O-NO 75 0 min 0,000 mm 0,0 UV-I 0 W/m 0,9 C 5,7 C 9,7 km/h (2 Bft)
11.10.2015 20:15 5,7 C 71 % 1018,3 hPa 0,0 l/m 2,7 km/h (1 Bft) NO 42 0 min 0,000 mm 0,0 UV-I 0 W/m 0,9 C 5,7 C 8,0 km/h (2 Bft)
11.10.2015 20:20 5,6 C 71 % 1018,3 hPa 0,0 l/m 3,2 km/h (1 Bft) W 263 0 min 0,000 mm 0,0 UV-I 0 W/m 0,8 C 5,6 C 9,7 km/h (2 Bft)
11.10.2015 20:25 5,4 C 71 % 1018,3 hPa 0,0 l/m 1,5 km/h (1 Bft) O-NO 73 0 min 0,000 mm 0,0 UV-I 0 W/m 0,6 C 5,4 C 6,4 km/h (2 Bft)
11.10.2015 20:30 5,3 C 72 % 1018,3 hPa 0,0 l/m 2,0 km/h (1 Bft) NO 49 0 min 0,000 mm 0,0 UV-I 0 W/m 0,7 C 5,3 C 8,0 km/h (2 Bft)
11.10.2015 20:35 5,3 C 72 % 1018,3 hPa 0,0 l/m 3,9 km/h (1 Bft) NO 48 0 min 0,000 mm 0,0 UV-I 0 W/m 0,7 C 5,3 C 14,5 km/h (3 Bft)
11.10.2015 20:40 5,3 C 71 % 1018,2 hPa 0,0 l/m 5,0 km/h (1 Bft) O-NO 60 0 min 0,000 mm 0,0 UV-I 0 W/m 0,5 C 5,3 C 12,9 km/h (3 Bft)
11.10.2015 20:45 5,3 C 71 % 1018,3 hPa 0,0 l/m 3,5 km/h (1 Bft) NO 49 0 min 0,000 mm 0,0 UV-I 0 W/m 0,5 C 5,3 C 11,3 km/h (2 Bft)
11.10.2015 20:50 5,2 C 71 % 1018,3 hPa 0,0 l/m 5,5 km/h (1 Bft) O-NO 57 0 min 0,000 mm 0,0 UV-I 0 W/m 0,4 C 5,2 C 9,7 km/h (2 Bft)
11.10.2015 20:55 5,2 C 71 % 1018,4 hPa 0,0 l/m 3,0 km/h (1 Bft) NO 53 0 min 0,000 mm 0,0 UV-I 0 W/m 0,4 C 5,2 C 12,9 km/h (3 Bft)
11.10.2015 21:00 5,1 C 71 % 1018,3 hPa 0,0 l/m 3,3 km/h (1 Bft) NO 40 0 min 0,000 mm 0,0 UV-I 0 W/m 0,3 C 5,1 C 9,7 km/h (2 Bft)
11.10.2015 21:05 5,0 C 71 % 1018,2 hPa 0,0 l/m 3,2 km/h (1 Bft) O-NO 75 0 min 0,026 mm 0,0 UV-I 0 W/m 0,2 C 5,0 C 6,4 km/h (2 Bft)
11.10.2015 21:10 5,0 C 71 % 1018,4 hPa 0,0 l/m 4,6 km/h (1 Bft) NO 44 0 min 0,000 mm 0,0 UV-I 0 W/m 0,2 C 5,0 C 16,1 km/h (3 Bft)
11.10.2015 21:15 4,9 C 71 % 1018,4 hPa 0,0 l/m 2,3 km/h (1 Bft) NO 55 0 min 0,000 mm 0,0 UV-I 0 W/m 0,1 C 4,9 C 11,3 km/h (2 Bft)
11.10.2015 21:20 4,8 C 72 % 1018,4 hPa 0,0 l/m 3,2 km/h (1 Bft) O-NO 66 0 min 0,000 mm 0,0 UV-I 0 W/m 0,2 C 4,8 C 11,3 km/h (2 Bft)
11.10.2015 21:25 4,7 C 72 % 1018,4 hPa 0,0 l/m 2,0 km/h (1 Bft) O-NO 61 0 min 0,000 mm 0,0 UV-I 0 W/m 0,1 C 4,7 C 8,0 km/h (2 Bft)
11.10.2015 21:30 4,6 C 72 % 1018,5 hPa 0,0 l/m 1,5 km/h (1 Bft) O-NO 76 0 min 0,000 mm 0,0 UV-I 0 W/m -0,0 C 4,6 C 8,0 km/h (2 Bft)
11.10.2015 21:35 4,5 C 73 % 1018,5 hPa 0,0 l/m 1,9 km/h (1 Bft) O-NO 62 0 min 0,000 mm 0,0 UV-I 0 W/m 0,1 C 4,5 C 6,4 km/h (2 Bft)
11.10.2015 21:40 4,4 C 73 % 1018,5 hPa 0,0 l/m 3,8 km/h (1 Bft) N-NO 20 0 min 0,000 mm 0,0 UV-I 0 W/m -0,0 C 4,4 C 11,3 km/h (2 Bft)
11.10.2015 21:45 4,4 C 72 % 1018,5 hPa 0,0 l/m 3,8 km/h (1 Bft) O-NO 59 0 min 0,000 mm 0,0 UV-I 0 W/m -0,2 C 4,4 C 12,9 km/h (3 Bft)
11.10.2015 21:50 4,4 C 73 % 1018,5 hPa 0,0 l/m 1,2 km/h (1 Bft) O-NO 60 0 min 0,000 mm 0,0 UV-I 0 W/m -0,0 C 4,4 C 6,4 km/h (2 Bft)
11.10.2015 21:55 4,3 C 73 % 1018,6 hPa 0,0 l/m 1,3 km/h (1 Bft) NO 55 0 min 0,000 mm 0,0 UV-I 0 W/m -0,1 C 4,3 C 6,4 km/h (2 Bft)
11.10.2015 22:00 4,2 C 73 % 1018,5 hPa 0,0 l/m 1,1 km/h (1 Bft) O-NO 60 0 min 0,000 mm 0,0 UV-I 0 W/m -0,2 C 4,2 C 4,8 km/h (1 Bft)
11.10.2015 22:05 4,1 C 73 % 1018,5 hPa 0,0 l/m 1,6 km/h (1 Bft) NO 42 0 min 0,025 mm 0,0 UV-I 0 W/m -0,3 C 4,1 C 6,4 km/h (2 Bft)
11.10.2015 22:10 4,0 C 73 % 1018,6 hPa 0,0 l/m 3,2 km/h (1 Bft) NO 40 0 min 0,000 mm 0,0 UV-I 0 W/m -0,4 C 4,0 C 12,9 km/h (3 Bft)
11.10.2015 22:15 4,0 C 73 % 1018,6 hPa 0,0 l/m 0,9 km/h (0 Bft) O-NO 70 0 min 0,000 mm 0,0 UV-I 0 W/m -0,4 C 4,0 C 6,4 km/h (2 Bft)
11.10.2015 22:20 4,1 C 72 % 1018,6 hPa 0,0 l/m 3,9 km/h (1 Bft) NO 36 0 min 0,000 mm 0,0 UV-I 0 W/m -0,5 C 4,1 C 14,5 km/h (3 Bft)
11.10.2015 22:25 4,0 C 72 % 1018,6 hPa 0,0 l/m 2,4 km/h (1 Bft) NO 51 0 min 0,000 mm 0,0 UV-I 0 W/m -0,6 C 4,0 C 14,5 km/h (3 Bft)
11.10.2015 22:30 3,9 C 72 % 1018,6 hPa 0,0 l/m 2,0 km/h (1 Bft) NO 55 0 min 0,000 mm 0,0 UV-I 0 W/m -0,7 C 3,9 C 8,0 km/h (2 Bft)
11.10.2015 22:35 3,9 C 72 % 1018,7 hPa 0,0 l/m 1,2 km/h (1 Bft) NO 47 0 min 0,000 mm 0,0 UV-I 0 W/m -0,7 C 3,9 C 6,4 km/h (2 Bft)
11.10.2015 22:40 3,8 C 73 % 1018,7 hPa 0,0 l/m 1,0 km/h (0 Bft) O-NO 63 0 min 0,000 mm 0,0 UV-I 0 W/m -0,6 C 3,8 C 4,8 km/h (1 Bft)
11.10.2015 22:45 3,7 C 73 % 1018,7 hPa 0,0 l/m 1,6 km/h (1 Bft) NO 43 0 min 0,000 mm 0,0 UV-I 0 W/m -0,7 C 3,7 C 4,8 km/h (1 Bft)
11.10.2015 22:50 3,6 C 73 % 1018,8 hPa 0,0 l/m 2,9 km/h (1 Bft) O-NO 61 0 min 0,000 mm 0,0 UV-I 0 W/m -0,8 C 3,6 C 11,3 km/h (2 Bft)
11.10.2015 22:55 3,6 C 72 % 1018,8 hPa 0,0 l/m 3,4 km/h (1 Bft) NO 55 0 min 0,000 mm 0,0 UV-I 0 W/m -1,0 C 3,6 C 11,3 km/h (2 Bft)
11.10.2015 23:00 3,6 C 73 % 1018,7 hPa 0,0 l/m 1,3 km/h (1 Bft) O-NO 62 0 min 0,000 mm 0,0 UV-I 0 W/m -0,8 C 3,6 C 6,4 km/h (2 Bft)
11.10.2015 23:05 3,5 C 73 % 1018,7 hPa 0,0 l/m 0,9 km/h (0 Bft) O-NO 57 0 min 0,025 mm 0,0 UV-I 0 W/m -0,9 C 3,5 C 4,8 km/h (1 Bft)
11.10.2015 23:10 3,4 C 73 % 1018,7 hPa 0,0 l/m 1,0 km/h (0 Bft) NO 38 0 min 0,000 mm 0,0 UV-I 0 W/m -1,0 C 3,4 C 4,8 km/h (1 Bft)
11.10.2015 23:15 3,3 C 74 % 1018,7 hPa 0,0 l/m 0,9 km/h (0 Bft) NO 40 0 min 0,000 mm 0,0 UV-I 0 W/m -0,9 C 3,3 C 4,8 km/h (1 Bft)
11.10.2015 23:20 3,2 C 74 % 1018,7 hPa 0,0 l/m 2,4 km/h (1 Bft) NO 47 0 min 0,000 mm 0,0 UV-I 0 W/m -1,0 C 3,2 C 6,4 km/h (2 Bft)
11.10.2015 23:25 3,2 C 74 % 1018,7 hPa 0,0 l/m 1,6 km/h (1 Bft) NO 53 0 min 0,000 mm 0,0 UV-I 0 W/m -1,0 C 3,2 C 6,4 km/h (2 Bft)
11.10.2015 23:30 3,1 C 74 % 1018,7 hPa 0,0 l/m 1,4 km/h (1 Bft) NO 49 0 min 0,000 mm 0,0 UV-I 0 W/m -1,1 C 3,1 C 4,8 km/h (1 Bft)
11.10.2015 23:35 3,2 C 74 % 1018,7 hPa 0,0 l/m 2,1 km/h (1 Bft) O 95 0 min 0,000 mm 0,0 UV-I 0 W/m -1,0 C 3,2 C 9,7 km/h (2 Bft)
11.10.2015 23:40 3,2 C 74 % 1018,7 hPa 0,0 l/m 2,3 km/h (1 Bft) O-NO 61 0 min 0,000 mm 0,0 UV-I 0 W/m -1,0 C 3,2 C 11,3 km/h (2 Bft)
11.10.2015 23:45 3,2 C 74 % 1018,7 hPa 0,0 l/m 0,7 km/h (0 Bft) O-NO 65 0 min 0,000 mm 0,0 UV-I 0 W/m -1,0 C 3,2 C 4,8 km/h (1 Bft)
11.10.2015 23:50 3,2 C 74 % 1018,7 hPa 0,0 l/m 0,7 km/h (0 Bft) O-NO 61 0 min 0,000 mm 0,0 UV-I 0 W/m -1,0 C 3,2 C 3,2 km/h (1 Bft)
11.10.2015 23:55 3,1 C 74 % 1018,7 hPa 0,0 l/m 0,4 km/h (0 Bft) O-NO 69 0 min 0,000 mm 0,0 UV-I 0 W/m -1,1 C 3,1 C 4,8 km/h (1 Bft)
_ Min-Zeit 08:00 13:45 04:15 - 00:15 - - - - - - 23:30 08:55 00:05
Minimum _ 2,6 C 48 % 1016,5 hPa - 0,1 km/h (0 Bft) - - - - - - -1,1 C 0,8 C 3,2 km/h (1 Bft)
_ Max-Zeit 13:40 00:10 22:50 00:00 16:30 - - 08:50 13:05 12:50 13:25 13:35 13:40 16:50
Maximum _ 12,3 C 78 % 1018,8 hPa 0,0 l/m 15,3 km/h
O-NO (3 Bft)
- - 5 min 0,280 mm 2,3 UV-I 532 W/m 2,5 C 12,3 C 29,0 km/h
NO (5 Bft)
Durchschnitt _ 6,5 C 68 % 1017,5 hPa #0,0 l/m 4,6 km/h (1 Bft) O-NO - #9:45 h #2,184 mm 1,5 UV-I 309 W/m 0,8 C 6,1 C 13,6 km/h (3 Bft)